Shelbyville, IN

11:04 PM EST on January 23, 2018 (GMT -0500)
Shelbyville Municipal

Weather History for KGEZ - May, 2013

Change the Weather History Date:

Saturday, May 25, 2013

  Actual Average Record
Temperature  
Mean Temperature 57 °F 66 °F  
Max Temperature 68 °F 76 °F 89 °F (2012)
Min Temperature 46 °F 55 °F 45 °F (1999)
Degree Days  
Heating Degree Days 8 3  
Month to date heating degree days 76 124  
Since 1 July heating degree days 5069 5384  
Cooling Degree Days 0 3  
Month to date cooling degree days 98 46  
Year to date cooling degree days 114 59  
Growing Degree Days 7 (Base 50)    
Moisture  
Dew Point 42 °F    
Average Humidity 56    
Maximum Humidity 80    
Minimum Humidity 32    
Precipitation  
Precipitation T in 0.16 in 1.62 in (2011)
Month to date precipitation 1.67 4.45  
Year to date precipitation 11.40 16.95  
Sea Level Pressure  
Sea Level Pressure 30.30 in    
Wind  
Wind Speed 4 mph (NW)    
Max Wind Speed 10 mph    
Max Gust Speed 13 mph    
Visibility 10 miles    
Events Rain    
T = Trace of Precipitation, MM = Missing Value Source: NWS Daily Summary

Daily Weather History Graph

Daily Weather History Graph

Search for Another Location

Airport or City:

Trip Planner

Search our weather history database for the weather conditions in past years. The results will help you decide how hot, cold, wet, or windy it might be!

Date:

Astronomy

May. 25, 2013 Rise Set
Actual Time 6:21 AM EDT 8:59 PM EDT
Civil Twilight 5:49 AM EDT 9:31 PM EDT
Nautical Twilight 5:10 AM EDT 10:10 PM EDT
Astronomical Twilight 4:26 AM EDT 10:54 PM EDT
Moon 9:47 PM EDT (5/25) 6:47 AM EDT (5/25)
Length of Visible Light 15h 41m
Length of Day
14h 38m
Full, 100% of the Moon is Illuminated
May 25
Full
May 31
Last Quarter
Jun 8
New
Jun 16
First Quarter
Jun 23
Full

Hourly Weather History & Observations

Time (EDT) Temp. Windchill Dew Point Humidity Pressure Visibility Wind Dir Wind Speed Gust Speed Precip Events Conditions
12:53 AM 50.0 °F - 42.1 °F 74% 30.30 in 10.0 mi Calm Calm - N/A   Clear
1:53 AM 48.9 °F - 42.1 °F 77% 30.30 in 10.0 mi Calm Calm - N/A   Clear
2:53 AM 48.9 °F - 42.1 °F 77% 30.31 in 10.0 mi North 3.5 mph - N/A   Clear
3:53 AM 48.0 °F - 39.9 °F 74% 30.29 in 10.0 mi NNE 6.9 mph - N/A   Clear
4:53 AM 48.9 °F - 39.0 °F 69% 30.29 in 10.0 mi NNE 3.5 mph - N/A   Clear
5:53 AM 46.0 °F 43.9 °F 39.9 °F 79% 30.29 in 10.0 mi ENE 4.6 mph - N/A   Clear
6:53 AM 48.0 °F - 42.1 °F 80% 30.31 in 10.0 mi Calm Calm - N/A   Clear
7:53 AM 52.0 °F - 42.1 °F 69% 30.31 in 10.0 mi East 6.9 mph - N/A   Clear
8:53 AM 55.0 °F - 43.0 °F 64% 30.35 in 10.0 mi ESE 3.5 mph - N/A   Clear
9:53 AM 57.0 °F - 43.0 °F 59% 30.36 in 10.0 mi Calm Calm - N/A   Mostly Cloudy
10:53 AM 59.0 °F - 43.0 °F 55% 30.36 in 10.0 mi Calm Calm - N/A   Mostly Cloudy
11:53 AM 62.1 °F - 44.1 °F 52% 30.35 in 10.0 mi Calm Calm - N/A   Overcast
12:53 PM 64.0 °F - 39.9 °F 41% 30.33 in 10.0 mi SW 4.6 mph - N/A   Partly Cloudy
1:53 PM 64.9 °F - 37.9 °F 37% 30.32 in 10.0 mi West 5.8 mph - N/A   Mostly Cloudy
2:53 PM 66.0 °F - 39.0 °F 37% 30.32 in 10.0 mi West 5.8 mph - N/A   Overcast
3:53 PM 68.0 °F - 39.9 °F 36% 30.30 in 10.0 mi WNW 9.2 mph - N/A   Mostly Cloudy
4:53 PM 66.0 °F - 37.9 °F 36% 30.27 in 10.0 mi NNW 3.5 mph - N/A   Overcast
5:53 PM 66.0 °F - 36.0 °F 33% 30.25 in 10.0 mi Calm Calm - N/A   Overcast
6:53 PM 66.0 °F - 37.0 °F 34% 30.19 in 10.0 mi ESE 5.8 mph - N/A   Mostly Cloudy
7:53 PM 63.0 °F - 46.0 °F 54% 30.24 in 10.0 mi West 6.9 mph - N/A   Overcast
8:53 PM 61.0 °F - 46.0 °F 58% 30.25 in 10.0 mi WNW 6.9 mph - N/A   Overcast
9:53 PM 59.0 °F - 46.9 °F 64% 30.27 in 10.0 mi WNW 5.8 mph - 0.00 in Rain Light Rain
10:53 PM 57.9 °F - 46.9 °F 67% 30.28 in 10.0 mi WNW 6.9 mph - N/A   Overcast
11:53 PM 55.9 °F - 48.0 °F 75% 30.29 in 10.0 mi West 8.1 mph - 0.00 in Rain Light Rain